1511521201.09,19789,9.44,73646.3,3.65,-29.07,-29.51,0,*70
1511521202.34,19790,9.44,73648.5,3.65,-29.17,-29.39,0,*77
1511521203.59,19791,9.44,73644.5,3.65,-29.51,-29.83,0,*75
1511521204.82,19792,9.44,73644.8,3.63,-29.61,-29.89,0,*79
1511521206.09,19793,9.44,73644.5,3.61,-29.73,-30.01,0,*71
1511521207.37,19794,9.44,73646.3,3.61,-29.73,-30.01,0,*76
1511521208.65,19795,9.44,73650.8,3.61,-29.39,-29.73,0,*74
1511521209.87,19796,9.44,73650.5,3.61,-29.61,-29.95,0,*72
1511521211.11,19797,9.44,73648.0,3.59,-29.51,-29.67,0,*76
1511521212.36,19798,9.44,73648.5,3.59,-29.17,-29.51,0,*7E
1511521213.61,19799,9.44,73650.0,3.59,-28.79,-29.01,0,*73
1511521214.86,19800,9.44,73654.5,3.59,-28.79,-29.13,0,*7F
1511521216.11,19801,9.44,73652.3,3.59,-29.13,-29.51,0,*75
1511521217.33,19802,9.44,73652.3,3.59,-28.97,-29.29,0,*74
1511521218.55,19803,9.44,73650.8,3.59,-28.85,-29.17,0,*7B
1511521219.79,19804,9.44,73648.8,3.59,-28.75,-29.13,0,*77
1511521221.06,19805,9.44,73654.5,3.57,-29.57,-29.89,0,*7A
1511521222.31,19806,9.44,73650.5,3.59,-29.73,-30.01,0,*79
1511521223.56,19807,9.44,73648.5,3.57,-29.73,-30.11,0,*77
1511521224.84,19808,9.44,73640.8,3.57,-29.73,-30.05,0,*7D
1511521226.09,19809,9.44,73646.0,3.57,-30.23,-30.55,0,*74
1511521227.29,19810,9.44,73644.8,3.59,-29.61,-29.95,0,*78
1511521228.52,19811,9.44,73642.5,3.57,-29.83,-30.23,0,*7E
1511521229.8,19812,9.44,73638.0,3.57,-29.73,-30.05,0,*76
1511521231.03,19813,9.44,73640.5,3.53,-30.11,-30.45,0,*7B
1511521232.26,19814,9.44,73644.3,3.53,-29.79,-30.11,0,*7B
1511521233.52,19815,9.44,73642.0,3.53,-30.05,-30.33,0,*79
1511521234.81,19816,9.44,73640.0,3.53,-29.89,-30.17,0,*70
1511521236.1,19817,9.44,73634.3,3.53,-29.89,-30.17,0,*71
1511521237.38,19818,9.44,73640.3,3.53,-29.39,-29.73,0,*7F
1511521238.64,19819,9.44,73640.8,3.53,-29.89,-30.27,0,*7C
1511521239.91,19820,9.44,73640.0,3.51,-29.89,-30.17,0,*77
1511521241.14,19821,9.44,73644.5,3.49,-29.83,-30.23,0,*72
1511521242.35,19822,9.44,73644.3,3.51,-29.95,-30.27,0,*7B
1511521243.59,19823,9.44,73640.0,3.49,-29.95,-30.23,0,*77
1511521244.82,19824,9.44,73640.0,3.51,-29.89,-30.27,0,*70
1511521246.09,19825,9.44,73640.5,3.49,-29.83,-30.17,0,*71
1511521247.34,19826,9.44,73642.0,3.49,-30.11,-30.51,0,*73
1511521248.6,19827,9.44,73632.0,3.49,-30.01,-30.23,0,*76
1511521249.82,19828,9.44,73636.8,3.43,-30.01,-30.23,0,*73
1511521251.07,19829,9.44,73632.0,3.43,-30.39,-30.61,0,*7F
1511521252.32,19830,9.44,73642.0,3.43,-30.17,-30.55,0,*7C
1511521253.57,19831,9.44,73638.0,3.45,-30.23,-30.55,0,*7C
1511521254.8,19832,9.44,73644.0,3.43,-30.17,-30.45,0,*7F
1511521256.05,19833,9.44,73638.3,3.41,-30.11,-30.51,0,*7F
1511521257.25,19834,9.38,73640.8,3.39,-30.11,-30.45,0,*72
1511521258.51,19835,9.44,73640.0,3.41,-30.23,-30.61,0,*7B
1511521259.72,19836,9.44,73634.8,3.39,-30.33,-30.67,0,*70
1511521260.94,19837,9.44,73644.0,3.39,-30.05,-30.45,0,*74
1511521262.22,19838,9.44,73638.0,3.37,-30.17,-30.51,0,*73
1511521263.47,19839,9.44,73636.5,3.37,-30.11,-30.39,0,*7A
1511521264.75,19840,9.44,73638.0,3.37,-30.01,-30.39,0,*75
1511521265.98,19841,9.44,73636.0,3.37,-30.11,-30.33,0,*7F
1511521267.23,19842,9.44,73630.0,3.37,-30.01,-30.27,0,*78
1511521268.5,19843,9.44,73632.5,3.37,-30.01,-30.39,0,*76
1511521269.75,19844,9.44,73624.0,3.35,-30.01,-30.39,0,*73
1511521270.97,19845,9.38,73626.0,3.35,-30.27,-30.67,0,*7D
1511521272.2,19846,9.44,73624.3,3.35,-30.01,-30.33,0,*7B
1511521273.46,19847,9.44,73632.0,3.35,-30.17,-30.51,0,*79
1511521274.68,19848,9.44,73640.3,3.35,-30.11,-30.39,0,*7E
1511521275.91,19849,9.44,73638.5,3.35,-30.01,-30.33,0,*74
1511521277.17,19850,9.44,73638.3,3.33,-29.89,-30.23,0,*73
1511521278.43,19851,9.44,73638.3,3.33,-29.67,-30.05,0,*76
1511521279.64,19852,9.44,73640.5,3.35,-29.83,-30.11,0,*7C
1511521280.89,19853,9.44,73638.3,3.31,-30.05,-30.45,0,*7E
1511521282.14,19854,9.44,73634.8,3.33,-30.05,-30.23,0,*7B
1511521283.36,19855,9.44,73634.5,3.31,-29.95,-30.27,0,*7D
1511521284.62,19856,9.44,73640.3,3.31,-30.11,-30.61,0,*78
1511521285.87,19857,9.44,73642.3,3.31,-30.11,-30.51,0,*7A
1511521287.09,19858,9.44,73652.8,3.31,-30.45,-30.83,0,*7B
1511521288.37,19859,9.44,73648.8,3.31,-29.89,-30.39,0,*73
1511521289.62,19860,9.44,73648.0,3.31,-29.89,-30.11,0,*73
1511521290.84,19861,9.44,73646.3,3.31,-29.79,-30.11,0,*7D
1511521292.1,19862,9.44,73642.8,3.29,-29.89,-30.05,0,*7D
1511521293.29,19863,9.44,73640.8,3.29,-29.79,-30.11,0,*76
1511521294.55,19864,9.44,73644.0,3.27,-29.95,-30.17,0,*7B
1511521295.78,19865,9.44,73646.0,3.29,-29.73,-29.95,0,*7E
1511521296.98,19866,9.44,73646.5,3.29,-29.79,-30.11,0,*73
1511521298.2,19867,9.44,73644.3,3.29,-30.05,-30.27,0,*74
1511521299.42,19868,9.44,73642.3,3.27,-29.79,-30.11,0,*73
1511521300.68,19869,9.44,73638.5,3.29,-29.39,-29.89,0,*71
1511521301.91,19870,9.44,73636.5,3.27,-29.61,-29.83,0,*70
1511521303.14,19871,9.44,73636.8,3.27,-29.61,-29.95,0,*76
1511521304.39,19872,9.44,73638.5,3.27,-29.83,-30.01,0,*7C
1511521305.64,19873,9.44,73640.3,3.27,-30.01,-30.33,0,*7E
1511521306.87,19874,9.44,73642.5,3.27,-29.61,-29.83,0,*74
1511521308.12,19875,9.44,73642.3,3.27,-29.23,-29.35,0,*7E
1511521309.37,19876,9.44,73640.5,3.27,-29.79,-30.01,0,*7D
1511521310.61,19877,9.44,73638.8,3.27,-30.01,-30.27,0,*7F
1511521311.86,19878,9.44,73638.3,3.27,-29.79,-30.01,0,*73
1511521313.09,19879,9.44,73638.5,3.29,-28.69,-28.91,0,*7C
1511521314.32,19880,9.44,73646.5,3.29,-28.25,-28.69,0,*75
1511521315.57,19881,9.44,73646.0,3.29,-28.43,-28.75,0,*79
1511521316.8,19882,9.44,73646.0,3.29,-28.37,-28.43,0,*7C
1511521318.05,19883,9.44,73646.0,3.31,-28.21,-28.37,0,*70
1511521319.3,19884,9.44,73646.5,3.33,-28.53,-28.79,0,*7A
1511521320.55,19885,9.44,73652.0,3.31,-28.85,-29.01,0,*7C
1511521321.83,19886,9.44,73654.0,3.31,-28.25,-28.25,0,*72
1511521323.09,19887,9.44,73648.5,3.33,-28.15,-28.21,0,*76
1511521324.37,19888,9.44,73650.5,3.33,-28.47,-28.63,0,*78
1511521325.6,19889,9.44,73646.8,3.35,-29.13,-29.61,0,*7C
1511521326.82,19890,9.44,73640.3,3.35,-29.07,-29.17,0,*70
1511521328.06,19891,9.44,73642.8,3.35,-29.35,-29.79,0,*78
1511521329.26,19892,9.44,73632.5,3.35,-29.67,-29.95,0,*7E
1511521330.47,19893,9.44,73636.3,3.35,-29.61,-29.95,0,*79
1511521331.7,19894,9.44,73636.5,3.35,-29.67,-30.01,0,*7D
1511521332.94,19895,9.44,73636.3,3.35,-29.95,-30.17,0,*76
1511521334.2,19896,9.44,73638.3,3.33,-29.89,-30.23,0,*79
1511521335.47,19897,9.44,73640.5,3.33,-29.57,-29.89,0,*73
1511521336.72,19898,9.44,73642.8,3.31,-29.39,-29.61,0,*70
1511521338.0,19899,9.44,73646.8,3.31,-29.89,-30.05,0,*70
1511521339.22,19900,9.44,73644.5,3.31,-29.79,-29.95,0,*7F
1511521340.45,19901,9.44,73642.3,3.31,-29.95,-30.23,0,*79
1511521341.67,19902,9.44,73642.8,3.31,-29.57,-29.79,0,*73
1511521342.95,19903,9.44,73646.5,3.31,-29.39,-29.73,0,*70
1511521344.17,19904,9.44,73644.3,3.31,-29.07,-29.23,0,*7F
1511521345.42,19905,9.44,73654.8,3.31,-29.17,-29.57,0,*7C
1511521346.66,19906,9.44,73650.0,3.33,-29.57,-29.83,0,*70
1511521347.88,19907,9.44,73644.8,3.31,-29.61,-29.95,0,*71
1511521349.09,19908,9.44,73648.8,3.29,-29.45,-29.79,0,*73
1511521350.34,19909,9.44,73650.8,3.31,-29.29,-29.57,0,*7D
1511521351.58,19910,9.44,73650.0,3.31,-28.91,-29.07,0,*72
1511521352.84,19911,9.44,73644.3,3.31,-29.39,-29.61,0,*70
1511521354.09,19912,9.44,73644.0,3.31,-29.57,-29.89,0,*7D
1511521355.34,19913,9.44,73646.0,3.31,-29.79,-30.05,0,*7C
1511521356.56,19914,9.44,73648.3,3.31,-29.79,-30.11,0,*7E
1511521357.78,19915,9.44,73642.0,3.31,-29.79,-30.11,0,*7F
1511521359.01,19916,9.44,73644.0,3.29,-29.89,-30.23,0,*7B
1511521360.24,19917,9.44,73638.8,3.27,-30.11,-30.33,0,*7C
1511521361.47,19918,9.44,73644.5,3.29,-29.61,-29.89,0,*7B
1511521362.73,19919,9.44,73648.0,3.29,-29.39,-29.73,0,*72
1511521363.93,19920,9.44,73652.3,3.29,-29.45,-29.79,0,*79
1511521365.2,19921,9.44,73650.8,3.27,-28.91,-29.13,0,*72
1511521366.41,19922,9.44,73648.0,3.29,-29.61,-29.95,0,*7F
1511521367.64,19923,9.44,73644.8,3.29,-28.85,-29.01,0,*78
1511521368.86,19924,9.44,73646.3,3.29,-28.69,-28.91,0,*75
1511521370.06,19925,9.44,73648.5,3.29,-29.07,-29.23,0,*75
1511521371.29,19926,9.44,73650.0,3.29,-28.43,-28.69,0,*78
1511521372.52,19927,9.44,73646.8,3.29,-28.59,-28.85,0,*70
1511521373.77,19928,9.44,73640.3,3.29,-28.59,-28.91,0,*7A
1511521374.98,19929,9.44,73636.5,3.29,-29.45,-29.79,0,*70
1511521376.23,19930,9.44,73640.5,3.31,-29.45,-29.89,0,*7E
1511521377.5,19931,9.44,73640.0,3.29,-29.39,-29.89,0,*7D
1511521378.75,19932,9.44,73632.8,3.31,-29.17,-29.45,0,*7B
1511521380.02,19933,9.44,73636.3,3.27,-29.13,-29.51,0,*7C
1511521381.24,19934,9.44,73642.5,3.29,-28.75,-29.07,0,*77
1511521382.52,19935,9.44,73648.8,3.31,-29.39,-29.89,0,*70
1511521383.75,19936,9.44,73644.3,3.29,-29.17,-29.57,0,*75
1511521384.98,19937,9.44,73646.8,3.29,-29.29,-29.61,0,*7C
1511521386.24,19938,9.44,73646.0,3.29,-29.39,-29.89,0,*74
1511521387.5,19939,9.44,73640.5,3.29,-29.89,-30.05,0,*72
1511521388.73,19940,9.44,73636.5,3.29,-29.45,-29.89,0,*70
1511521389.96,19941,9.44,73640.0,3.29,-30.11,-30.39,0,*7B
1511521391.21,19942,9.44,73646.0,3.27,-29.61,-30.01,0,*72
1511521392.46,19943,9.44,73640.8,3.29,-29.73,-30.05,0,*7A
1511521393.72,19944,9.44,73648.5,3.27,-29.79,-30.17,0,*7A
1511521394.97,19945,9.44,73646.3,3.27,-29.51,-29.95,0,*73
1511521396.19,19946,9.44,73644.8,3.27,-29.67,-30.11,0,*71
1511521397.42,19947,9.44,73644.8,3.27,-29.95,-30.27,0,*78
1511521398.62,19948,9.44,73644.0,3.25,-30.11,-30.45,0,*75
1511521399.87,19949,9.44,73646.5,3.27,-29.95,-30.17,0,*75
1511521401.13,19950,9.44,73652.3,3.27,-29.79,-30.17,0,*7F
1511521402.33,19951,9.44,73646.5,3.21,-29.83,-30.27,0,*7E
1511521403.56,19952,9.44,73644.3,3.25,-29.67,-30.17,0,*70
1511521404.8,19953,9.44,73650.0,3.21,-29.67,-30.17,0,*75
1511521406.04,19954,9.44,73646.3,3.25,-30.05,-30.51,0,*78
1511521407.28,19955,9.44,73650.8,3.21,-29.89,-30.33,0,*75
1511521408.52,19956,9.44,73652.3,3.21,-30.05,-30.39,0,*70
1511521409.75,19957,9.44,73656.8,3.25,-29.83,-30.17,0,*7F
1511521411.01,19958,9.44,73650.0,3.21,-29.73,-30.17,0,*7B
1511521412.26,19959,9.44,73652.0,3.19,-29.67,-29.89,0,*7B
1511521413.52,19960,9.44,73652.8,3.19,-29.83,-30.01,0,*73
1511521414.8,19961,9.44,73652.5,3.19,-29.35,-29.73,0,*72
1511521416.04,19962,9.44,73654.5,3.19,-28.97,-29.13,0,*7E
1511521417.26,19963,9.44,73654.8,3.21,-28.97,-29.17,0,*70
1511521418.49,19964,9.44,73648.3,3.21,-29.39,-29.83,0,*7F
1511521419.72,19965,9.44,73654.0,3.21,-29.29,-29.57,0,*76
1511521420.97,19966,9.44,73652.8,3.27,-28.91,-29.07,0,*74
1511521422.18,19967,9.44,73654.8,3.25,-28.79,-28.97,0,*79
1511521423.4,19968,9.44,73654.0,3.25,-28.79,-29.23,0,*78
1511521424.61,19969,9.44,73658.5,3.25,-28.97,-29.29,0,*73
1511521425.85,19970,9.44,73654.3,3.25,-28.47,-28.79,0,*72
1511521427.09,19971,9.44,73652.5,3.25,-28.47,-28.79,0,*73
1511521428.36,19972,9.44,73656.5,3.27,-28.91,-29.13,0,*74
1511521429.6,19973,9.44,73658.5,3.27,-28.75,-28.97,0,*72
1511521430.84,19974,9.44,73660.0,3.27,-28.31,-28.47,0,*78
1511521432.1,19975,9.44,73660.8,3.27,-28.47,-28.79,0,*75
1511521433.35,19976,9.44,73656.3,3.27,-28.59,-28.97,0,*79
1511521434.57,19977,9.44,73654.0,3.27,-29.07,-29.23,0,*7C
1511521435.77,19978,9.44,73658.5,3.29,-28.85,-29.07,0,*70
1511521437.02,19979,9.44,73654.0,3.29,-29.01,-29.17,0,*7D
1511521438.24,19980,9.44,73656.3,3.27,-29.23,-29.67,0,*72
1511521439.48,19981,9.44,73654.0,3.29,-29.45,-29.89,0,*7D
1511521440.69,19982,9.44,73652.3,3.29,-29.61,-29.95,0,*75
1511521441.89,19983,9.44,73650.5,3.29,-29.57,-29.95,0,*71
1511521443.12,19984,9.44,73650.0,3.29,-29.61,-30.05,0,*72
1511521444.35,19985,9.44,73648.3,3.29,-29.67,-30.01,0,*71
1511521445.61,19986,9.44,73654.0,3.27,-29.83,-30.01,0,*76
1511521446.83,19987,9.44,73654.0,3.27,-29.61,-29.95,0,*7E
1511521448.03,19988,9.44,73654.3,3.29,-29.79,-30.23,0,*73
1511521449.26,19989,9.44,73652.0,3.27,-29.83,-30.27,0,*7D
1511521450.51,19990,9.44,73648.3,3.27,-30.01,-30.27,0,*77
1511521451.73,19991,9.44,73652.3,3.29,-30.11,-30.39,0,*76
1511521452.93,19992,9.44,73652.0,3.25,-30.11,-30.45,0,*72
1511521454.15,19993,9.44,73648.0,3.25,-30.01,-30.27,0,*76
1511521455.35,19994,9.44,73648.5,3.25,-29.83,-30.27,0,*73
1511521456.55,19995,9.44,73646.0,3.25,-29.83,-30.11,0,*77
1511521457.79,19996,9.44,73644.5,3.21,-29.83,-30.17,0,*76
1511521459.02,19997,9.44,73642.3,3.21,-29.89,-30.23,0,*7A
1511521460.26,19998,9.44,73650.8,3.21,-30.05,-30.51,0,*7C
1511521461.5,19999,9.44,73650.0,3.21,-29.83,-30.17,0,*79
1511521462.72,20000,9.44,73646.3,3.25,-29.61,-30.01,0,*75
1511521463.96,20001,9.44,73644.0,3.21,-29.67,-29.89,0,*7E
1511521465.19,20002,9.44,73642.3,3.25,-29.35,-29.67,0,*7E
1511521466.44,20003,9.44,73640.5,3.21,-29.17,-29.39,0,*70
1511521467.69,20004,9.44,73646.8,3.21,-29.35,-29.73,0,*79
1511521468.93,20005,9.44,73646.5,3.21,-29.57,-29.89,0,*79
1511521470.16,20006,9.44,73646.8,3.21,-29.35,-29.83,0,*74
1511521471.42,20007,9.44,73644.3,3.21,-29.89,-30.17,0,*77
1511521472.65,20008,9.44,73652.3,3.21,-29.89,-30.23,0,*7F
1511521473.9,20009,9.44,73648.3,3.21,-30.05,-30.51,0,*77
1511521475.13,20010,9.44,73648.8,3.21,-29.89,-30.23,0,*76
1511521476.36,20011,9.44,73646.3,3.21,-29.67,-30.05,0,*73
1511521477.61,20012,9.44,73646.0,3.21,-30.01,-30.17,0,*7B
1511521478.88,20013,9.44,73638.8,3.19,-30.05,-30.39,0,*79
1511521480.12,20014,9.44,73638.5,3.19,-30.23,-30.51,0,*74
1511521481.37,20015,9.44,73636.5,3.19,-30.23,-30.51,0,*75
1511521482.61,20016,9.44,73644.3,3.19,-30.23,-30.55,0,*72
1511521483.88,20017,9.44,73636.0,3.19,-30.05,-30.51,0,*73
1511521485.13,20018,9.44,73640.3,3.19,-30.33,-30.61,0,*7A
1511521486.36,20019,9.44,73646.0,3.17,-30.27,-30.55,0,*77
1511521487.6,20020,9.44,73644.5,3.19,-30.33,-30.55,0,*76
1511521488.83,20021,9.44,73648.0,3.17,-30.39,-30.67,0,*72
1511521490.05,20022,9.44,73646.8,3.17,-30.11,-30.39,0,*70
1511521491.28,20023,9.44,73640.3,3.15,-30.33,-30.67,0,*78
1511521492.55,20024,9.44,73648.0,3.15,-30.17,-30.51,0,*7C
1511521493.77,20025,9.44,73652.0,3.15,-30.27,-30.45,0,*7B
1511521495.0,20026,9.44,73648.3,3.13,-30.33,-30.61,0,*7D
1511521496.22,20027,9.44,73642.8,3.15,-30.11,-30.45,0,*7C
1511521497.45,20028,9.44,73646.8,3.13,-30.01,-30.27,0,*70
1511521498.68,20029,9.44,73646.3,3.13,-30.17,-30.33,0,*73
1511521499.91,20030,9.44,73642.3,3.13,-30.33,-30.61,0,*7A
1511521501.13,20031,9.44,73640.5,3.13,-30.45,-30.73,0,*79
1511521502.36,20032,9.44,73650.0,3.13,-30.45,-30.73,0,*7A
1511521503.56,20033,9.44,73650.0,3.13,-30.45,-30.67,0,*7E
1511521504.84,20034,9.44,73648.3,3.11,-30.51,-30.73,0,*7B
1511521506.06,20035,9.44,73646.0,3.13,-30.01,-30.27,0,*7C
1511521507.31,20036,9.44,73646.3,3.11,-30.01,-30.23,0,*79
1511521508.55,20037,9.44,73648.3,3.11,-30.05,-30.23,0,*7C
1511521509.8,20038,9.44,73646.8,3.09,-30.17,-30.39,0,*72
1511521511.01,20039,9.44,73646.3,3.09,-30.23,-30.51,0,*7A
1511521512.25,20040,9.44,73646.5,3.09,-30.39,-30.55,0,*7B
1511521513.47,20041,9.44,73650.5,3.09,-30.33,-30.55,0,*70
1511521514.69,20042,9.44,73644.0,3.09,-30.01,-30.23,0,*73
1511521515.92,20043,9.44,73652.0,3.09,-29.83,-30.17,0,*77
1511521517.18,20044,9.44,73646.0,3.09,-29.89,-30.17,0,*7A
1511521518.43,20045,9.44,73646.0,3.09,-30.01,-30.17,0,*73
1511521519.65,20046,9.44,73642.3,3.09,-30.05,-30.27,0,*77
1511521520.87,20047,9.44,73648.8,3.09,-30.05,-30.23,0,*72
1511521522.09,20048,9.44,73650.8,3.09,-30.05,-30.33,0,*7C
1511521523.32,20049,9.44,73654.3,3.07,-29.95,-30.23,0,*73
1511521524.57,20050,9.44,73654.5,3.07,-29.79,-30.05,0,*7D
1511521525.82,20051,9.44,73652.5,3.07,-29.89,-30.11,0,*76
1511521527.07,20052,9.44,73650.0,3.07,-29.73,-29.95,0,*74
1511521528.28,20053,9.44,73650.0,3.09,-29.83,-29.83,0,*73
1511521529.52,20054,9.44,73648.3,3.09,-29.17,-29.13,0,*70
1511521530.8,20055,9.44,73648.5,3.11,-28.63,-28.63,0,*7C
1511521532.02,20056,9.44,73650.8,3.09,-28.31,-28.25,0,*73
1511521533.27,20057,9.44,73654.5,3.11,-28.43,-28.31,0,*7B
1511521534.54,20058,9.44,73658.5,3.15,-28.47,-28.59,0,*7A
1511521535.78,20059,9.44,73656.3,3.13,-28.63,-28.79,0,*79
1511521537.0,20060,9.44,73654.3,3.13,-28.79,-29.07,0,*70
1511521538.24,20061,9.44,73654.0,3.15,-29.13,-29.23,0,*7C
1511521539.5,20062,9.44,73654.3,3.13,-29.39,-29.51,0,*74
1511521540.74,20063,9.44,73654.3,3.15,-29.23,-29.13,0,*7E
1511521541.98,20064,9.44,73652.3,3.15,-28.97,-29.13,0,*77
1511521543.22,20065,9.44,73650.3,3.15,-29.13,-29.23,0,*78
1511521544.46,20066,9.44,73652.3,3.15,-29.23,-29.29,0,*72
1511521545.71,20067,9.44,73648.5,3.15,-29.45,-29.51,0,*7C
1511521546.97,20068,9.44,73648.5,3.17,-29.35,-29.35,0,*74
1511521548.23,20069,9.44,73646.5,3.15,-29.13,-29.13,0,*77
1511521549.47,20070,9.44,73640.3,3.15,-28.97,-29.13,0,*72
1511521550.71,20071,9.44,73642.3,3.15,-28.79,-28.97,0,*7E
1511521551.93,20072,9.44,73642.8,3.19,-28.97,-28.97,0,*71
1511521553.16,20073,9.44,73642.8,3.17,-28.75,-28.85,0,*71
1511521554.41,20074,9.44,73642.5,3.17,-29.17,-29.35,0,*79
1511521555.63,20075,9.44,73650.5,3.17,-29.01,-29.23,0,*78
1511521556.85,20076,9.44,73646.8,3.21,-28.97,-29.13,0,*73
1511521558.1,20077,9.44,73644.3,3.21,-29.35,-29.73,0,*7D
1511521559.37,20078,9.44,73642.0,3.19,-29.01,-29.13,0,*78
1511521560.62,20079,9.44,73644.8,3.19,-28.85,-29.01,0,*77
1511521561.89,20080,9.44,73646.0,3.19,-29.01,-29.17,0,*7B
1511521563.17,20081,9.44,73644.8,3.19,-29.01,-29.17,0,*7A
1511521564.42,20082,9.44,73648.0,3.17,-28.91,-29.01,0,*78
1511521565.62,20083,9.44,73644.3,3.21,-28.85,-28.97,0,*77
1511521566.86,20084,9.44,73646.3,3.19,-28.97,-29.29,0,*7C
1511521568.11,20085,9.44,73626.3,3.19,-29.29,-29.67,0,*73
1511521569.39,20086,9.44,73636.8,3.19,-29.35,-29.73,0,*78
1511521570.67,20087,9.44,73634.0,3.19,-29.39,-29.73,0,*75
1511521571.9,20088,9.44,73642.5,3.21,-29.67,-30.01,0,*77
1511521573.15,20089,9.44,73638.5,3.19,-29.57,-30.01,0,*7E
1511521574.43,20090,9.44,73630.5,3.19,-29.35,-29.73,0,*7F
1511521575.63,20091,9.44,73634.0,3.17,-29.79,-30.11,0,*74
1511521576.87,20092,9.44,73634.8,3.17,-29.73,-30.05,0,*78
1511521578.11,20093,9.44,73636.3,3.17,-29.35,-29.45,0,*77
1511521579.35,20094,9.44,73642.8,3.19,-28.79,-28.97,0,*79
1511521580.6,20095,9.44,73646.8,3.17,-28.79,-28.79,0,*76
1511521581.85,20096,9.44,73646.0,3.19,-28.37,-28.63,0,*7A
1511521583.1,20097,9.44,73644.0,3.17,-28.47,-28.63,0,*72
1511521584.3,20098,9.44,73644.3,3.21,-28.15,-28.37,0,*7E
1511521585.52,20099,9.44,73648.3,3.21,-28.47,-28.69,0,*73
1511521586.74,20100,9.44,73650.3,3.21,-28.79,-28.97,0,*7E
1511521587.98,20101,9.44,73644.0,3.25,-28.59,-28.79,0,*79
1511521589.21,20102,9.44,73650.5,3.21,-28.97,-29.01,0,*72
1511521590.43,20103,9.44,73650.0,3.25,-28.91,-29.23,0,*71
1511521591.65,20104,9.44,73650.0,3.25,-29.07,-29.35,0,*7F
1511521592.85,20105,9.44,73648.0,3.25,-29.79,-30.11,0,*79
1511521594.1,20106,9.44,73648.3,3.25,-29.29,-29.51,0,*73
1511521595.33,20107,9.44,73650.0,3.25,-29.51,-29.83,0,*72
1511521596.57,20108,9.44,73650.5,3.21,-29.83,-30.17,0,*73
1511521597.79,20109,9.44,73650.3,3.25,-30.01,-30.27,0,*77
1511521599.02,20110,9.44,73648.8,3.21,-29.39,-29.67,0,*74
1511521600.25,20111,9.44,73648.0,3.25,-29.35,-29.67,0,*7D
1511521601.48,20112,9.44,73644.0,3.21,-30.01,-30.33,0,*7C
1511521602.71,20113,9.44,73654.3,3.21,-29.57,-30.01,0,*77
1511521603.95,20114,9.44,73650.3,3.21,-29.39,-29.83,0,*7A
1511521605.21,20115,9.44,73648.3,3.21,-29.39,-29.89,0,*71
1511521606.43,20116,9.44,73654.0,3.21,-29.29,-29.57,0,*70
1511521607.7,20117,9.44,73656.8,3.19,-29.01,-29.29,0,*79
1511521608.98,20118,9.44,73652.8,3.19,-29.35,-29.73,0,*7E
1511521610.25,20119,9.44,73650.5,3.19,-29.13,-29.39,0,*75
1511521611.5,20120,9.44,73652.8,3.21,-29.35,-29.73,0,*7E
1511521612.76,20121,9.44,73654.5,3.21,-29.17,-29.35,0,*7D
1511521614.01,20122,9.44,73652.5,3.21,-28.79,-29.01,0,*70
1511521615.26,20123,9.44,73646.8,3.21,-29.13,-29.35,0,*7B
1511521616.46,20124,9.44,73648.8,3.25,-29.23,-29.61,0,*7A
1511521617.72,20125,9.44,73646.5,3.21,-29.51,-30.01,0,*74
1511521618.96,20126,9.44,73648.0,3.25,-29.13,-29.35,0,*7A
1511521620.21,20127,9.44,73652.8,3.21,-29.01,-29.17,0,*7C
1511521621.43,20128,9.44,73660.8,3.21,-28.85,-29.13,0,*7A
1511521622.67,20129,9.44,73654.5,3.25,-28.47,-28.79,0,*7C
1511521623.89,20130,9.44,73654.8,3.25,-28.31,-28.63,0,*7E
1511521625.11,20131,9.44,73652.0,3.25,-28.31,-28.47,0,*79
1511521626.37,20132,9.44,73654.0,3.27,-28.47,-28.75,0,*78
1511521627.64,20133,9.44,73648.3,3.27,-28.91,-29.13,0,*73
1511521628.88,20134,9.44,73652.5,3.27,-29.13,-29.23,0,*7C
1511521630.15,20135,9.44,73658.0,3.27,-28.75,-28.79,0,*72
1511521631.43,20136,9.44,73658.3,3.27,-28.25,-28.59,0,*76
1511521632.65,20137,9.44,73646.8,3.29,-28.75,-29.07,0,*76
1511521633.9,20138,9.44,73652.3,3.29,-29.29,-29.73,0,*72
1511521635.12,20139,9.44,73656.0,3.29,-29.01,-29.23,0,*7C
1511521636.35,20140,9.44,73656.5,3.29,-29.17,-29.45,0,*75
1511521637.6,20141,9.44,73648.3,3.27,-29.23,-29.35,0,*7A
1511521638.85,20142,9.44,73644.5,3.27,-29.61,-30.01,0,*70
1511521640.08,20143,9.44,73648.3,3.29,-29.73,-30.11,0,*7D
1511521641.28,20144,9.44,73654.0,3.29,-29.23,-29.57,0,*75
1511521642.51,20145,9.44,73652.8,3.29,-29.01,-29.23,0,*77
1511521643.73,20146,9.44,73648.8,3.29,-29.23,-29.73,0,*71
1511521644.94,20147,9.44,73652.3,3.29,-29.23,-29.61,0,*73
1511521646.18,20148,9.44,73650.3,3.31,-29.07,-29.29,0,*7F
1511521647.41,20149,9.44,73640.0,3.29,-28.59,-28.85,0,*7A
1511521648.66,20150,9.44,73638.0,3.31,-28.69,-28.91,0,*7D
1511521649.93,20151,9.44,73636.8,3.31,-28.43,-28.59,0,*70
1511521651.16,20152,9.44,73640.8,3.33,-28.37,-28.69,0,*71
1511521652.42,20153,9.44,73648.0,3.33,-29.01,-29.23,0,*7B
1511521653.68,20154,9.44,73650.5,3.31,-29.57,-29.89,0,*7D
1511521654.9,20155,9.44,73644.5,3.31,-29.57,-29.95,0,*71
1511521656.15,20156,9.44,73640.0,3.31,-29.79,-30.05,0,*7F
1511521657.4,20157,9.44,73636.5,3.31,-30.11,-30.39,0,*77
1511521658.65,20158,9.44,73642.0,3.31,-30.23,-30.61,0,*74
1511521659.87,20159,9.44,73644.0,3.31,-30.11,-30.45,0,*72
1511521661.12,20160,9.44,73640.8,3.27,-29.67,-30.01,0,*76
1511521662.38,20161,9.44,73642.3,3.27,-29.51,-29.83,0,*70
1511521663.59,20162,9.44,73644.0,3.29,-29.95,-30.27,0,*73
1511521664.81,20163,9.44,73646.8,3.27,-29.95,-30.27,0,*7C
1511521666.09,20164,9.44,73646.3,3.27,-30.17,-30.51,0,*78
1511521667.32,20165,9.44,73650.5,3.27,-30.27,-30.67,0,*7F
1511521668.57,20166,9.44,73650.8,3.27,-30.01,-30.33,0,*79
1511521669.82,20167,9.44,73642.3,3.27,-29.67,-30.01,0,*71
1511521671.05,20168,9.44,73642.0,3.27,-29.67,-30.11,0,*7F
1511521672.27,20169,9.44,73644.0,3.27,-29.67,-29.95,0,*7A
1511521673.5,20170,9.44,73648.5,3.27,-29.45,-29.79,0,*70
1511521674.72,20171,9.44,73650.5,3.27,-29.45,-29.79,0,*71
1511521675.97,20172,9.44,73648.8,3.27,-29.79,-30.01,0,*7A
1511521677.17,20173,9.44,73648.3,3.25,-29.61,-29.95,0,*75
1511521678.4,20174,9.44,73646.8,3.25,-29.83,-30.17,0,*7C
1511521679.6,20175,9.44,73648.8,3.25,-30.11,-30.45,0,*79
1511521680.82,20176,9.44,73648.8,3.21,-30.23,-30.51,0,*7A
1511521682.07,20177,9.44,73652.8,3.21,-30.39,-30.73,0,*70
1511521683.29,20178,9.44,73648.0,3.21,-30.23,-30.51,0,*74
1511521684.51,20179,9.44,73648.8,3.21,-30.23,-30.51,0,*75
1511521685.74,20180,9.44,73646.5,3.21,-30.17,-30.33,0,*70
1511521686.99,20181,9.44,73654.3,3.21,-30.17,-30.51,0,*75
1511521688.21,20182,9.44,73648.3,3.21,-30.23,-30.55,0,*75
1511521689.46,20183,9.44,73646.3,3.19,-30.33,-30.55,0,*7E
1511521690.68,20184,9.44,73648.5,3.17,-30.23,-30.39,0,*7C
1511521691.92,20185,9.44,73650.3,3.19,-30.23,-30.51,0,*7D
1511521693.13,20186,9.44,73650.3,3.17,-30.27,-30.45,0,*71
1511521694.33,20187,9.44,73644.8,3.17,-30.27,-30.45,0,*70
1511521695.53,20188,9.44,73642.0,3.17,-30.11,-30.23,0,*7A
1511521696.75,20189,9.44,73646.3,3.19,-30.23,-30.33,0,*75
1511521697.95,20190,9.44,73646.8,3.17,-29.95,-30.11,0,*76
1511521699.17,20191,9.44,73640.3,3.17,-30.23,-30.39,0,*78
1511521700.4,20192,9.44,73648.3,3.15,-30.27,-30.33,0,*77
1511521701.62,20193,9.44,73646.0,3.15,-30.27,-30.45,0,*77
1511521702.85,20194,9.44,73646.0,3.15,-30.11,-30.45,0,*75
1511521704.07,20195,9.44,73640.5,3.13,-30.17,-30.45,0,*74
1511521705.3,20196,9.44,73636.0,3.15,-30.27,-30.33,0,*73
1511521706.51,20197,9.44,73636.8,3.13,-30.27,-30.45,0,*75
1511521707.71,20198,9.44,73640.3,3.13,-30.11,-30.45,0,*7F
1511521708.96,20199,9.44,73644.3,3.13,-30.01,-30.17,0,*78
1511521710.21,20200,9.44,73642.0,3.13,-30.01,-30.17,0,*7B
1511521711.44,20201,9.44,73642.3,3.13,-29.67,-30.01,0,*75
1511521712.68,20202,9.44,73644.5,3.13,-29.51,-29.83,0,*71